GFSGL_500_spd_231.txt.gz
Wind_Speed
16 14 14 18 26 24 20 20 15 17 20 23 18 15 21 21 21 22 25 24 22 23 21 20 19 17 16 16 19 18 19 20 17 16 15 12 11 15 15 14 15 16 18
12 11 18 21 23 27 15 22 13 13 21 21 15 19 21 21 22 24 24 24 24 26 23 21 21 20 18 17 16 18 17 16 16 18 19 16 16 16 16 14 14 12 18
20 19 23 24 22 21 24 12 11 13 14 13 18 22 24 21 21 24 25 25 24 23 23 22 22 20 19 18 20 18 14 16 16 15 16 17 16 16 16 16 16 17 18
28 21 23 27 24 16 15 18 14 12 11 11 21 22 27 25 24 24 26 25 25 23 21 22 22 21 18 18 19 18 17 19 20 21 21 20 19 19 19 20 21 21 21
29 26 24 22 27 34 23 20 18 11 11 12 15 24 30 29 26 25 26 28 26 23 25 23 21 23 21 20 20 20 20 20 20 22 22 23 23 23 22 23 24 25 27
30 30 23 25 23 19 27 26 29 14 12 11 16 17 13 27 30 29 28 27 27 25 25 25 23 22 22 21 22 22 22 22 23 23 25 27 26 26 26 28 29 29 30
35 32 28 27 29 28 30 30 22 21 17 17 16 18 19 20 20 34 34 30 29 27 25 25 24 23 24 25 26 24 25 25 26 25 25 26 25 26 26 25 25 28 28
39 38 35 30 31 33 35 31 27 26 23 21 21 19 20 19 21 27 29 34 30 29 28 28 29 26 25 26 27 26 27 27 26 25 22 22 23 23 25 25 25 25 25
44 41 39 38 35 37 40 38 35 31 30 27 24 23 22 24 23 24 22 27 25 29 32 31 31 27 26 26 24 24 25 27 26 23 22 23 25 27 28 27 28 26 25
47 44 42 40 40 41 44 47 43 39 37 32 29 29 27 29 27 26 27 24 24 28 31 29 29 28 29 26 24 25 24 25 23 21 23 25 27 29 29 30 29 28 26
56 53 51 46 45 43 46 48 52 44 41 39 36 35 32 29 29 28 30 29 30 31 31 31 32 31 30 28 26 25 26 26 24 22 25 27 28 26 25 26 27 27 26
60 59 60 56 50 46 46 52 50 52 49 42 38 40 40 39 34 32 32 33 34 34 34 34 33 32 31 29 26 28 27 27 27 26 27 28 24 21 21 20 23 25 25
49 49 49 49 54 50 51 51 53 54 58 58 55 45 47 47 45 38 35 34 37 37 38 37 38 36 33 30 29 28 26 27 28 27 27 26 20 17 16 17 20 24 26
42 44 47 47 47 51 48 52 54 56 56 59 60 59 56 56 61 44 42 38 37 40 39 41 41 38 33 30 31 30 29 29 28 29 28 27 22 22 21 20 21 24 25
44 41 42 42 46 51 53 52 59 58 54 57 60 60 57 57 58 50 31 42 41 38 40 42 41 38 35 34 35 36 35 33 31 29 28 29 26 28 25 22 24 24 22
46 41 43 40 41 44 46 50 55 56 55 55 58 57 55 55 53 41 41 37 43 39 40 40 42 43 41 38 36 32 30 32 32 32 33 30 30 27 25 24 24 22 21
43 39 41 41 41 41 41 47 51 53 53 52 50 51 53 50 41 37 34 32 32 31 37 38 41 38 43 40 37 30 27 33 34 32 32 31 28 27 26 25 24 22 22
38 37 36 35 36 39 41 44 48 46 46 47 46 48 48 42 32 31 30 26 29 26 29 42 39 40 42 39 37 33 29 32 34 30 29 28 28 28 27 26 24 24 25
33 35 37 35 35 38 39 42 42 38 39 42 42 43 38 34 30 27 30 27 26 26 31 33 42 43 43 42 38 31 32 30 31 28 29 29 29 28 27 27 26 27 29
31 32 34 34 35 35 35 35 36 35 37 38 39 37 32 31 29 28 24 21 21 17 28 26 32 46 45 39 39 35 32 31 32 31 30 29 30 29 28 29 30 30 30
26 30 33 33 32 33 33 31 32 34 33 35 36 35 33 33 31 25 20 20 26 24 22 27 25 28 46 43 38 38 36 33 34 32 30 31 32 30 30 32 33 32 32
23 25 29 30 32 30 30 29 29 30 30 32 35 36 35 34 31 27 23 25 32 28 25 26 28 32 41 46 43 43 39 36 35 33 33 33 32 31 33 32 32 32 32
21 22 23 26 26 27 28 27 27 27 29 30 32 35 37 37 34 31 27 31 32 28 23 25 30 32 45 50 44 44 41 39 36 34 34 34 34 34 32 32 32 32 32
18 18 22 23 25 26 25 27 30 27 27 28 29 31 32 32 31 28 30 35 36 30 20 21 20 19 25 36 41 42 42 38 35 35 36 36 36 35 35 32 33 32 34
20 20 19 22 26 25 24 22 25 28 30 31 31 30 29 30 30 31 39 41 45 39 25 22 20 27 32 37 39 38 39 39 37 36 38 39 37 37 37 34 35 35 37
15 15 19 22 26 28 27 24 22 24 26 30 32 32 32 32 36 39 45 43 44 40 33 29 25 33 35 38 39 39 40 39 37 37 39 39 38 38 38 37 38 39 42

GFSGL_500_spd_234.txt.gz
Wind_Speed
16 16 11 15 17 18 25 22 31 29 26 24 26 27 24 24 24 27 27 28 27 25 19 24 23 21 21 19 18 18 20 18 21 19 18 16 15 13 14 17 15 16 18
16 16 16 21 21 19 21 24 26 23 27 21 22 22 17 17 22 23 21 26 29 24 20 22 23 21 20 18 17 16 17 16 16 19 19 16 16 16 14 16 16 15 15
22 25 25 25 18 23 23 25 15 22 22 15 17 18 17 21 21 21 23 25 28 26 25 24 24 21 21 20 17 16 15 15 15 16 14 13 13 14 16 17 17 17 17
26 27 28 26 22 22 25 24 22 16 22 13 12 21 20 22 21 21 22 24 25 24 22 25 26 23 23 20 19 17 17 17 15 16 17 16 17 18 19 20 21 21 22
31 29 29 27 26 23 21 27 25 25 22 13 14 17 29 27 28 24 23 25 27 30 22 23 25 24 24 22 19 17 18 18 18 18 19 20 19 19 21 23 25 25 25
36 34 31 30 30 26 24 20 13 26 25 17 16 15 17 17 32 29 26 28 31 25 28 27 26 25 24 25 21 19 18 19 20 21 21 21 22 22 23 24 24 26 26
40 39 36 33 32 31 29 30 23 25 25 22 22 19 17 20 19 30 27 29 30 27 27 25 28 28 27 25 24 22 21 20 22 23 23 24 24 24 23 23 24 24 24
40 40 37 37 36 35 34 34 32 30 27 30 27 24 21 19 19 23 22 31 36 30 29 29 29 28 27 27 27 25 24 22 25 25 25 26 26 26 26 25 25 25 25
46 44 43 42 40 37 39 40 41 41 37 35 33 28 25 23 22 23 24 24 31 36 37 34 35 32 30 30 31 26 25 25 26 26 27 25 27 28 29 28 28 29 29
52 51 47 47 46 43 40 44 44 46 47 42 39 36 28 29 26 26 25 23 25 25 34 39 36 34 32 33 26 25 25 26 26 22 26 26 26 27 28 29 32 33 33
53 56 55 52 50 49 46 44 47 48 49 50 45 41 36 33 31 30 28 26 26 31 30 35 32 33 36 35 30 26 24 29 26 23 24 25 26 28 29 28 29 30 30
46 49 52 56 54 57 53 48 46 46 50 51 54 52 45 42 41 36 33 29 28 30 33 32 34 34 34 31 29 27 30 30 28 26 27 27 28 28 28 27 26 25 24
48 48 47 49 52 56 60 60 56 52 50 52 53 55 54 48 45 42 39 38 33 31 35 37 36 34 34 30 30 31 31 27 27 26 27 28 29 29 28 27 24 22 22
49 50 50 47 46 48 54 57 56 54 54 53 54 56 53 55 53 46 44 40 40 35 37 40 41 38 35 32 31 32 31 29 28 27 27 29 29 30 29 31 27 23 24
45 45 49 52 50 45 47 52 54 51 51 56 58 59 58 56 54 56 53 47 41 40 55 43 41 42 40 34 33 33 31 31 31 31 32 34 34 32 31 33 31 26 26
43 46 47 49 51 48 46 46 49 53 53 57 55 58 57 53 54 56 56 51 40 38 44 39 48 44 44 42 40 38 37 37 36 36 36 35 34 36 35 33 31 28 25
41 43 46 47 47 46 43 45 43 48 51 54 57 58 55 53 50 52 54 48 41 34 37 39 37 47 46 46 45 43 40 39 37 36 37 36 34 35 36 33 31 28 27
36 34 35 36 40 43 41 43 41 39 42 47 53 53 51 48 50 50 51 48 39 33 33 24 27 35 40 45 45 42 42 41 36 35 38 38 34 34 34 32 30 28 29
29 29 29 31 35 38 39 39 40 40 42 44 47 46 46 46 47 48 47 47 38 34 31 25 27 32 35 40 42 41 41 39 37 33 39 40 35 34 33 31 29 30 31
20 22 25 27 29 34 35 34 35 36 40 43 41 40 42 44 44 41 42 39 38 36 34 30 31 30 31 28 34 41 41 40 37 35 38 41 38 34 32 31 30 31 32
19 20 21 22 28 30 35 34 34 34 36 37 37 38 38 39 38 39 39 38 35 32 31 30 28 26 27 30 39 48 44 41 39 40 39 41 39 36 34 33 31 31 32
25 23 22 21 23 29 31 31 31 32 32 33 34 36 36 37 38 38 39 37 33 33 31 32 33 31 32 29 24 36 45 42 41 43 42 43 42 38 35 34 32 31 32
25 26 22 19 19 23 27 28 26 28 30 31 32 36 38 38 40 40 39 37 36 34 35 36 37 37 34 31 32 36 40 48 50 46 44 44 44 38 36 35 33 33 32
16 21 20 18 18 18 21 23 26 28 30 29 32 37 37 38 39 41 41 40 39 36 36 39 43 44 40 38 38 43 44 46 52 48 46 47 42 39 38 36 35 34 33
8 11 14 15 18 19 19 20 22 25 27 28 34 34 35 38 39 40 40 41 40 41 40 40 43 43 39 36 32 37 42 48 50 46 51 45 42 40 38 37 36 36 35
3 6 12 14 14 18 19 20 19 21 24 27 29 29 32 33 35 38 40 41 42 41 43 43 43 45 40 37 28 29 30 39 47 51 44 42 38 39 37 37 38 38 37

GFSGL_500_spd_237.txt.gz
Wind_Speed
24 25 19 18 14 15 16 16 19 20 22 23 24 25 23 24 27 28 30 28 30 28 26 24 21 19 20 22 21 20 18 19 18 19 23 23 15 19 15 17 17 14 15
26 26 27 22 19 19 21 20 20 20 17 19 21 23 23 26 29 30 30 27 30 30 28 25 21 22 22 20 19 18 17 19 19 22 15 16 12 18 16 14 13 16 16
30 30 30 29 25 24 21 23 25 23 19 16 19 22 25 22 20 21 23 23 27 26 27 27 22 19 22 21 20 17 16 15 16 16 16 13 15 14 14 14 16 16 17
36 35 34 32 29 27 30 25 22 24 23 21 21 21 24 20 19 23 23 25 23 24 28 28 25 23 24 22 21 18 17 16 16 15 13 14 13 13 14 16 18 18 19
41 41 38 37 36 32 33 33 31 28 28 28 15 19 21 23 21 22 21 22 24 25 28 28 25 27 27 23 22 20 18 18 18 17 15 15 16 15 17 19 20 21 22
47 44 41 39 39 37 34 37 35 35 31 28 27 21 19 24 23 29 28 29 27 29 28 28 29 28 28 26 25 22 21 20 19 18 18 18 18 18 17 19 20 23 24
51 48 44 42 40 39 36 37 41 38 32 23 18 21 22 20 15 17 24 27 26 27 27 28 29 29 29 28 25 24 23 23 21 20 21 21 21 20 18 20 21 22 22
51 50 46 44 39 38 36 34 38 36 35 26 24 27 21 18 14 19 19 20 31 30 26 26 24 24 30 29 27 26 28 25 23 23 23 24 22 22 22 24 24 24 25
49 50 50 47 44 43 42 40 38 37 36 36 35 33 27 23 25 22 23 19 21 28 32 31 27 27 27 28 29 27 29 29 26 26 25 24 24 25 25 26 26 25 28
44 46 49 51 51 49 48 46 42 39 39 41 39 40 36 31 31 33 27 23 20 26 27 26 35 35 27 31 33 32 31 32 29 25 24 23 23 24 27 28 28 28 29
38 39 42 45 47 49 52 53 51 44 43 42 44 43 42 41 37 35 33 35 31 27 25 24 22 37 38 35 39 34 29 26 26 26 23 25 24 22 24 26 28 30 30
46 44 44 44 44 46 47 49 51 52 47 47 46 48 46 47 45 42 41 38 37 21 22 24 25 24 27 38 37 33 32 31 29 27 26 26 27 26 28 26 31 31 29
47 48 47 46 48 50 47 44 45 49 49 49 50 49 51 52 48 48 47 42 39 38 22 26 25 28 28 28 30 24 26 29 30 30 31 29 29 28 25 25 26 29 30
51 52 51 51 51 49 51 49 44 44 46 48 54 52 50 51 50 49 51 52 46 40 36 33 32 29 30 30 30 28 29 33 34 32 31 30 30 28 26 28 28 28 30
48 47 47 47 48 50 49 50 49 45 44 46 49 61 59 55 53 47 49 49 52 47 44 42 37 34 31 33 37 36 36 37 36 34 33 34 33 32 30 32 33 31 29
43 44 43 43 45 46 46 44 46 49 48 45 45 51 61 60 56 50 49 50 50 49 47 43 36 31 38 38 37 37 40 40 41 40 38 37 36 35 35 35 36 34 33
46 46 43 42 42 42 44 44 45 48 51 53 50 48 52 55 58 56 53 55 52 52 47 44 37 39 41 36 34 38 42 44 44 44 42 41 38 37 37 36 35 36 32
39 42 42 40 40 39 40 44 47 47 50 51 50 49 50 54 57 57 56 55 54 53 48 48 39 40 39 36 39 39 41 44 44 46 46 45 41 39 39 37 35 36 29
35 37 37 35 33 36 35 36 38 42 47 47 46 47 45 48 50 54 56 53 51 48 46 43 43 42 39 36 32 33 36 41 42 44 46 47 44 42 40 37 36 35 29
33 27 25 26 28 29 29 29 31 34 39 40 40 41 41 44 47 47 50 50 51 48 45 42 43 42 40 36 35 33 35 37 42 44 44 43 45 43 41 39 35 35 30
18 18 19 21 21 22 23 25 25 29 32 34 36 38 40 40 39 39 42 44 46 45 44 43 44 44 41 40 37 40 36 35 42 43 44 45 43 42 40 40 35 35 34
22 22 23 23 21 22 22 23 24 26 27 29 31 34 35 38 39 38 40 42 41 44 44 45 45 44 44 43 43 43 41 41 40 42 43 46 47 43 39 39 38 36 37
26 26 26 24 22 21 24 21 21 23 26 27 30 32 33 36 38 39 39 40 43 45 45 47 46 45 46 46 44 42 37 32 33 30 44 43 33 37 40 45 42 39 39
24 22 23 23 19 19 21 20 20 22 23 26 28 30 32 33 36 36 38 43 47 48 48 48 47 46 47 45 43 44 42 40 39 33 34 44 45 49 50 46 46 44 40
13 16 16 17 17 16 16 17 19 21 22 24 24 27 29 31 34 35 42 45 47 48 48 48 48 46 45 43 43 43 43 41 41 39 41 45 48 53 56 51 51 50 45
2 8 11 13 15 16 15 15 18 19 20 22 24 26 27 29 32 36 40 45 46 45 46 48 47 45 44 42 41 41 42 42 44 43 44 42 41 56 50 53 55 51 38

GFSGL_500_spd_240.txt.gz
Wind_Speed
31 27 30 26 24 18 21 21 20 20 19 21 18 16 18 19 20 21 21 22 22 23 23 24 21 19 20 21 21 22 25 22 22 18 20 23 19 15 19 8 7 12 14
37 37 32 30 31 23 25 24 22 20 23 21 20 22 19 21 21 20 21 23 23 23 24 26 27 24 22 20 18 20 20 20 23 20 17 18 17 16 14 10 10 9 11
37 39 36 33 30 29 26 28 25 25 27 26 26 22 22 25 23 19 21 23 24 22 24 29 26 27 24 23 20 20 19 24 20 18 18 11 13 13 14 13 12 13 14
43 42 40 36 34 33 31 30 32 31 30 30 27 29 25 33 28 22 22 19 19 22 24 30 29 26 24 21 22 22 21 20 14 16 12 13 14 10 10 10 13 16 17
46 48 48 44 40 38 38 35 31 35 35 37 33 31 32 26 29 25 22 23 23 22 24 26 27 28 27 23 22 23 23 21 21 18 18 16 13 13 15 15 15 16 19
49 50 50 50 47 43 42 41 36 35 38 35 35 30 34 44 27 23 23 24 24 24 28 26 29 31 30 28 29 26 25 25 24 22 21 18 17 17 16 17 17 16 20
48 49 50 51 51 47 45 44 42 39 40 38 35 34 36 35 29 22 17 28 26 28 28 32 32 32 32 30 33 32 30 29 27 24 20 21 20 19 17 18 19 19 19
43 44 46 47 49 48 44 42 42 38 41 40 37 35 32 29 35 22 14 20 26 32 35 34 36 32 33 31 35 35 32 31 29 25 23 24 21 21 20 21 22 20 20
38 39 41 43 45 46 46 43 43 43 40 39 39 37 31 32 37 38 20 23 21 25 28 29 31 31 34 32 28 38 34 31 32 29 26 23 22 22 21 22 23 21 22
33 35 37 40 42 42 44 46 48 46 45 43 42 40 37 35 40 45 46 34 24 24 22 27 27 31 28 35 29 39 39 36 34 32 28 25 26 23 22 20 22 20 21
38 41 42 41 40 37 36 37 42 46 49 48 47 44 42 38 42 45 48 38 35 30 22 25 22 22 32 36 27 31 30 36 31 27 25 28 26 25 23 22 21 21 24
46 48 47 47 48 48 45 42 39 39 42 45 51 50 49 43 41 45 48 43 34 36 33 16 24 23 25 28 34 32 30 27 28 29 26 25 27 25 26 25 26 26 25
52 53 49 49 46 47 48 46 43 42 40 40 43 45 52 54 48 45 47 46 42 39 33 27 20 22 26 24 20 30 34 30 34 33 32 28 26 27 27 26 27 28 28
50 50 50 50 48 48 49 50 48 47 45 42 41 43 44 50 55 52 48 45 47 42 36 35 31 31 27 26 25 24 24 30 27 32 30 30 31 29 29 29 30 28 28
50 48 48 48 48 47 47 49 51 49 48 46 43 44 44 44 48 55 55 46 45 48 44 43 41 38 33 27 24 26 28 26 28 31 32 33 34 33 31 31 31 32 29
44 43 46 46 45 44 43 43 46 47 47 45 45 45 45 44 47 47 53 52 48 51 48 46 43 41 39 32 31 28 28 28 31 34 36 37 38 37 34 35 33 33 32
45 44 44 42 41 42 45 42 40 42 45 46 44 44 47 46 43 46 46 51 53 53 50 47 42 40 36 35 34 31 31 27 33 32 35 42 40 38 36 38 36 35 34
40 39 37 42 42 41 42 44 44 42 41 42 43 43 45 49 52 48 45 44 53 59 54 46 42 40 37 35 36 38 36 36 38 34 43 44 37 37 38 37 40 39 38
35 36 30 34 30 33 37 37 39 39 38 40 43 45 47 48 52 52 48 46 45 54 59 52 45 43 42 39 39 40 39 39 42 40 35 34 25 37 43 39 42 42 41
31 27 27 32 35 34 33 34 35 35 35 36 39 43 48 50 49 49 48 45 45 49 55 55 51 46 44 44 42 43 41 42 40 34 33 38 37 41 34 40 45 44 42
31 26 23 21 18 18 19 21 23 25 27 29 32 35 41 43 44 43 41 41 42 43 51 54 53 51 47 42 45 46 43 41 42 41 37 36 40 43 42 46 52 47 42
30 26 23 21 22 21 22 22 19 20 24 23 25 27 30 32 34 36 36 35 35 40 43 47 51 50 49 43 46 46 45 41 41 42 41 38 40 42 46 47 41 44 42
23 23 24 24 25 25 24 23 19 24 22 18 19 23 26 27 28 29 32 37 35 35 35 39 44 48 46 42 44 45 44 43 44 43 44 42 38 36 42 45 48 42 47
5 11 16 19 22 22 20 17 16 17 19 16 22 24 26 27 28 29 30 33 35 36 37 40 41 45 45 46 46 46 43 46 47 46 45 43 40 38 34 40 41 37 54
12 7 7 15 16 16 17 14 13 14 16 20 23 25 26 27 26 26 28 31 33 32 37 39 42 44 46 47 46 46 47 47 47 46 42 41 39 40 35 32 37 41 46
18 10 5 8 11 13 15 9 11 13 19 19 21 21 22 22 24 27 29 27 22 35 40 42 45 44 45 47 48 49 48 45 43 39 38 41 42 40 41 38 37 41 46

GFSGL_500_spd_246.txt.gz
Wind_Speed
32 33 32 33 29 25 26 28 26 24 23 25 28 37 28 17 15 22 28 21 26 26 28 28 28 29 29 26 27 24 27 27 23 20 20 21 19 21 21 21 23 22 18
33 37 36 35 35 31 31 31 31 31 28 27 30 31 31 23 19 18 27 25 23 28 31 29 30 31 29 31 26 26 27 27 24 23 23 20 20 21 22 18 24 23 20
43 40 36 36 36 35 32 33 32 34 33 32 31 31 27 25 23 26 28 27 20 26 32 31 30 33 31 32 29 27 27 29 28 28 29 26 23 24 22 23 19 19 20
44 45 43 41 39 37 35 34 35 37 36 37 36 34 33 31 32 29 32 25 22 29 30 30 29 29 34 35 36 32 29 28 28 28 26 24 24 24 23 20 21 23 20
46 46 46 45 44 43 44 44 43 41 40 39 39 38 36 34 37 34 31 31 27 23 28 31 33 29 34 35 40 37 31 28 30 28 29 25 24 23 23 22 20 21 19
49 49 48 47 47 48 49 46 48 48 46 43 43 42 41 40 40 38 34 32 31 28 27 31 35 28 35 38 40 42 36 32 32 32 32 26 29 27 26 23 23 20 21
48 46 46 48 48 49 50 49 48 48 48 45 44 45 43 43 41 41 37 37 34 31 29 35 38 35 39 41 38 37 37 34 33 34 33 33 29 27 27 24 24 26 24
44 40 36 38 43 46 45 43 43 42 41 41 42 46 47 45 44 41 39 38 36 32 32 31 36 37 40 40 37 35 40 38 34 33 33 33 32 30 29 26 27 27 26
41 41 42 39 39 43 46 45 43 42 40 38 38 39 44 48 48 43 41 37 37 33 31 30 39 44 47 46 37 43 45 40 40 36 38 38 34 31 29 28 29 28 27
44 44 44 44 44 40 39 40 39 37 35 33 33 37 40 41 47 47 43 38 37 34 31 29 35 36 49 49 51 31 42 42 43 39 43 37 35 35 34 32 33 30 29
46 42 41 40 39 40 38 38 38 38 37 36 35 36 39 40 42 46 46 41 38 36 32 27 28 38 37 44 38 41 43 36 46 44 36 40 39 35 35 36 35 33 31
48 47 46 45 44 43 40 41 43 46 46 44 41 41 41 41 39 38 41 44 41 40 34 33 30 33 33 17 34 35 49 48 42 40 42 42 42 44 44 43 39 34 34
43 44 45 46 48 47 46 46 48 49 51 51 46 45 45 44 44 41 38 36 43 41 37 34 35 31 34 41 30 29 33 44 44 44 40 41 43 46 45 45 42 37 40
32 36 41 44 45 45 45 43 43 45 50 51 50 47 45 46 45 47 45 40 37 43 43 42 38 34 29 30 28 22 29 43 52 46 45 42 44 48 46 45 44 38 38
28 32 37 41 42 42 42 42 44 43 42 44 47 46 45 45 45 48 44 41 39 38 44 45 45 41 34 31 28 27 26 32 32 36 38 40 34 43 49 48 45 44 36
33 34 35 37 38 39 41 43 43 42 39 41 40 44 45 42 43 47 48 45 42 40 40 44 45 46 42 35 36 37 31 30 29 29 31 36 35 35 41 47 46 42 40
40 40 38 42 40 37 35 35 32 36 40 41 40 41 40 41 41 44 45 44 45 43 40 42 42 43 45 44 39 41 38 34 31 30 34 35 42 41 44 47 46 42 42
44 41 38 33 33 33 32 26 23 30 32 33 36 39 40 39 40 38 39 41 40 43 42 43 41 40 45 46 45 42 43 41 40 38 35 30 31 40 45 45 42 43 42
41 41 43 37 34 26 23 21 23 24 26 29 30 34 33 35 36 37 33 35 40 40 43 45 42 40 43 47 49 48 44 46 46 43 41 38 34 34 33 36 39 39 42
41 38 35 24 13 14 15 14 16 20 25 23 21 30 33 32 31 31 35 37 39 41 41 45 45 41 41 42 47 53 49 47 46 43 44 45 44 39 35 36 37 37 40
40 32 27 19 6 9 10 11 10 9 12 19 21 23 25 27 29 29 31 33 35 38 41 42 45 45 42 42 41 45 51 49 49 46 45 46 47 43 42 40 38 41 45
34 33 24 15 10 6 7 9 11 10 9 11 14 17 19 21 24 26 29 32 36 37 41 44 44 45 47 46 45 43 44 51 53 51 50 50 50 46 43 40 42 42 40
35 27 22 16 11 13 14 14 14 13 16 17 19 22 22 24 25 25 26 29 32 35 39 45 48 49 48 48 50 49 47 44 50 56 56 53 51 50 46 44 46 44 41
32 25 22 20 16 12 14 16 14 16 16 17 16 17 17 17 18 19 22 24 25 27 32 40 45 49 49 47 49 53 51 48 47 54 60 57 54 50 49 46 46 45 42
30 28 25 20 21 21 14 16 15 13 12 12 15 15 13 15 18 18 19 22 23 23 24 26 30 35 38 41 44 47 50 52 50 51 55 59 58 53 48 46 47 46 42
33 28 24 22 25 22 17 15 14 14 13 10 15 11 18 20 17 19 21 22 24 24 24 24 26 30 35 40 42 44 48 51 52 52 55 57 55 55 52 50 49 50 49